Home > Weather > Merida > Past weeks

Flag for Mexico Past Weather in Merida, Yucatán, Mexico — Yesterday and Last 2 Weeks

Now
79 °F

Passing clouds.


Feels Like: 83 °F
Forecast: 76 / 95 °F
Wind: 3 mph from Northeast

Location: Aerop. Internacional Merida - Yuc

Current Time: Jul 29, 2016 at 9:09:06 AM

Latest Report: Jul 29, 2016 at 7:45 AM


Visibility: 7 mi

Pressure: 29.98 "Hg

Humidity: 94%

Dew Point: 77 °F

Location of MeridaLocation

Past Weather in Merida — Graph

°F

Merida Temperature Yesterday

Maximum temperature yesterday: 97 °F (at 1:46 PM)
Minimum temperature yesterday: 34 °F (at 4:52 PM)
Average temperature yesterday: 76 °F

High & Low Weather Summary for the Past Weeks

 TemperatureHumidityPressure
High99 °F (Jul 17, 2:46 PM)100% (Jul 28, 4:52 PM)30.09 "Hg (Jul 28, 4:52 PM)
Low34 °F (Jul 28, 4:52 PM)37% (Jul 16, 3:47 PM)29.87 "Hg (Jul 25, 3:42 PM)
Average83 °F74%29.98 "Hg
* Reported Jul 14 7:49 AM — Jul 29 7:45 AM, Merida, Weather by CustomWeather, © 2016

Note: Actual official high and low records may vary slightly from our data, if they occured in-between our weather recording intervals... More about our weather records

Advertising

Merida Weather History for the Previous 24 Hours

Scroll right to see more
 ConditionsComfort  
Time TempWeatherWind HumidityBarometerVisibility
7:45 AM
Fri, Jul 29
79 °FPassing clouds.3 mph94%29.98 "Hg7 mi
6:44 AM75 °FPassing clouds.6 mph94%29.96 "Hg7 mi
5:45 AM75 °FPassing clouds.No wind94%29.96 "Hg7 mi
4:45 AM75 °FPassing clouds.No wind94%29.96 "Hg7 mi
3:45 AM77 °FPassing clouds.3 mph94%29.96 "Hg7 mi
2:43 AM77 °FClear.No wind94%29.94 "Hg7 mi
1:43 AM77 °FClear.No wind94%29.96 "Hg7 mi
12:45 AM77 °FPassing clouds.No wind94%29.98 "Hg7 mi
11:45 PM
Thu, Jul 28
75 °FPassing clouds.No wind94%29.99 "Hg7 mi
10:45 PM77 °FPassing clouds.5 mph94%29.98 "Hg7 mi
9:45 PM77 °FPassing clouds.6 mph94%29.99 "Hg7 mi
8:49 PM77 °FPassing clouds.5 mph94%29.96 "Hg7 mi
7:45 PM77 °FBroken clouds.No wind94%29.95 "Hg7 mi
5:53 PM73 °FThunderstorms. Partly sunny.No wind94%29.93 "Hg7 mi
5:33 PM73 °FThunderstorms. Partly sunny.No wind94%29.93 "Hg7 mi
5:09 PM73 °FThunderstorms. Mostly cloudy.6 mph94%29.95 "Hg5 mi
5:01 PM34 °FSleet. Overcast.6 mph100%29.96 "Hg1 mi
4:52 PM34 °FSleet. Dense fog.25 mph100%29.99 "Hg1 mi
4:22 PM81 °FBroken clouds.21 mph74%29.91 "Hg7 mi
2:47 PM95 °FPartly sunny.5 mph50%29.88 "Hg7 mi
1:46 PM97 °FPartly sunny.9 mph47%29.93 "Hg7 mi
12:43 PM95 °FPartly sunny.9 mph53%29.96 "Hg7 mi
11:43 AM93 °FPartly sunny.7 mph56%29.97 "Hg7 mi
Weather by CustomWeather, © 2016

See weather overviewHow to use our weather pages